Estación de Monte Patria - Chilecito

Ultimos registro cada 15 minutos 67
Estación Fecha / Hora Temperatura Humedad Lluvia Velocidad Dirección Radiación Presion
67 Monte Patria - Chilecito 02-05-2026 16:30 31,2 17,8 0 0,5 253 274,4 935,6
66 Monte Patria - Chilecito 02-05-2026 16:15 31,3 17,5 0 0,5 250 311,9 935,6
65 Monte Patria - Chilecito 02-05-2026 16:00 32 16,5 0 0,5 268 355,6 935,6
64 Monte Patria - Chilecito 02-05-2026 15:45 32,2 15,8 0 0,5 256 51,9 935,5
63 Monte Patria - Chilecito 02-05-2026 15:30 32,8 14,3 0 0,5 256 433,1 935,5
62 Monte Patria - Chilecito 02-05-2026 15:15 33,4 13 0 0,5 284 466,9 935,4
61 Monte Patria - Chilecito 02-05-2026 15:00 33,1 13,9 0 0 302 85,6 935,2
60 Monte Patria - Chilecito 02-05-2026 14:45 33,6 12,1 0 0 317 530,6 935,2
59 Monte Patria - Chilecito 02-05-2026 14:30 32,7 14,4 0 0,5 358 549,4 935,4
58 Monte Patria - Chilecito 02-05-2026 14:15 33,1 13,2 0 0 348 290,6 935,4
57 Monte Patria - Chilecito 02-05-2026 14:00 33,1 13,7 0 0 317 598,1 935,4
56 Monte Patria - Chilecito 02-05-2026 13:45 32,6 14,1 0 0,5 321 610,6 935,6
55 Monte Patria - Chilecito 02-05-2026 13:30 32,6 14,1 0 0,5 312 624,4 935,5
54 Monte Patria - Chilecito 02-05-2026 13:15 32,5 13,9 0 0,5 309 633,1 935,9
53 Monte Patria - Chilecito 02-05-2026 13:00 32,5 14,4 0 0,5 309 636,9 935,9
52 Monte Patria - Chilecito 02-05-2026 12:45 31,8 14,9 0 0,5 300 636,9 936,2
51 Monte Patria - Chilecito 02-05-2026 12:30 31,8 15,3 0 0 291 636,9 936,4
50 Monte Patria - Chilecito 02-05-2026 12:15 30,3 17,3 0 0 291 631,9 936,6
49 Monte Patria - Chilecito 02-05-2026 12:00 29,9 14,1 0 0 289 626,9 936,7
48 Monte Patria - Chilecito 02-05-2026 11:45 29,2 16,9 0 0 288 615,6 936,8
47 Monte Patria - Chilecito 02-05-2026 11:30 28 20,2 0 0 288 598,1 936,9
46 Monte Patria - Chilecito 02-05-2026 11:15 28,2 19,8 0 0 288 580,6 937
45 Monte Patria - Chilecito 02-05-2026 11:00 27,1 18,1 0 0 288 60,6 937,2
44 Monte Patria - Chilecito 02-05-2026 10:45 25,7 18,1 0 0 288 49,4 937,3
43 Monte Patria - Chilecito 02-05-2026 10:30 26,3 20,2 0 0 285 121,9 937,3
42 Monte Patria - Chilecito 02-05-2026 10:15 26,6 18,3 0 0 285 486,9 937,3
41 Monte Patria - Chilecito 02-05-2026 10:00 25,5 19 0 0 240 455,6 937,3
40 Monte Patria - Chilecito 02-05-2026 09:45 25,4 19,4 0 0 240 419,4 937,4
39 Monte Patria - Chilecito 02-05-2026 09:30 23,2 22,5 0 0 240 384,4 937,4
38 Monte Patria - Chilecito 02-05-2026 09:15 23,9 21,8 0 0 240 41,9 937,5
37 Monte Patria - Chilecito 02-05-2026 09:00 20,9 29,8 0 0 240 39,4 937,6
36 Monte Patria - Chilecito 02-05-2026 08:45 20,1 29,3 0 0 237 39,4 937,7
35 Monte Patria - Chilecito 02-05-2026 08:30 17,1 32,4 0 0 237 174,4 937,7
34 Monte Patria - Chilecito 02-05-2026 08:15 16,2 29,5 0 0 237 184,4 937,6
33 Monte Patria - Chilecito 02-05-2026 08:00 13,8 30,2 0 0 237 10,6 937,6
32 Monte Patria - Chilecito 02-05-2026 07:45 13,2 32,2 0 0 237 8,1 937,6
31 Monte Patria - Chilecito 02-05-2026 07:30 13,3 31,6 0 0 237 4,4 937,5
30 Monte Patria - Chilecito 02-05-2026 07:15 12,8 33,7 0 0 237 1,9 937,4
29 Monte Patria - Chilecito 02-05-2026 07:00 12 38,3 0 0 237 0,6 937,4
28 Monte Patria - Chilecito 02-05-2026 06:45 13,4 32,4 0 0 240 0,6 937,3
27 Monte Patria - Chilecito 02-05-2026 06:30 13,2 33,7 0 0 240 0,6 937,3
26 Monte Patria - Chilecito 02-05-2026 06:15 12,3 35 0 0 240 0,6 937,1
25 Monte Patria - Chilecito 02-05-2026 06:00 12,9 34,6 0 0 240 0,6 937
24 Monte Patria - Chilecito 02-05-2026 05:45 13,4 34,8 0 0 240 0,6 937,1
23 Monte Patria - Chilecito 02-05-2026 05:30 13,1 37,3 0 0 240 0,6 937,1
22 Monte Patria - Chilecito 02-05-2026 05:15 13 37,5 0 0 240 0,6 937,1
21 Monte Patria - Chilecito 02-05-2026 05:00 13,6 37,5 0 0 240 0,6 937,1
20 Monte Patria - Chilecito 02-05-2026 04:45 13,8 39,1 0 0 240 0,6 937,2
19 Monte Patria - Chilecito 02-05-2026 04:30 13,5 42 0 0 240 0,6 937,2
18 Monte Patria - Chilecito 02-05-2026 04:15 14,4 39,3 0 0 240 0,6 937,2
17 Monte Patria - Chilecito 02-05-2026 04:00 13,8 41,6 0 0 240 0,6 937,3
16 Monte Patria - Chilecito 02-05-2026 03:45 13,9 41,8 0 0 240 0,6 937,3
15 Monte Patria - Chilecito 02-05-2026 03:30 14 43,1 0 0 240 0,6 937,4
14 Monte Patria - Chilecito 02-05-2026 03:15 13,8 45,1 0 0 240 0,6 937,5
13 Monte Patria - Chilecito 02-05-2026 03:00 14,1 44,4 0 0 240 0,6 937,7
12 Monte Patria - Chilecito 02-05-2026 02:45 13,8 45,8 0 0 240 0,6 937,9
11 Monte Patria - Chilecito 02-05-2026 02:30 14 46,1 0 0 240 0,6 938,1
10 Monte Patria - Chilecito 02-05-2026 02:15 14,5 45,2 0 0 240 0,6 938,2
9 Monte Patria - Chilecito 02-05-2026 02:00 13,9 46,6 0 0 240 0,6 938,4
8 Monte Patria - Chilecito 02-05-2026 01:45 14,2 47,2 0 0 240 0,6 938,4
7 Monte Patria - Chilecito 02-05-2026 01:30 14,6 47,6 0 0 240 0,6 938,5
6 Monte Patria - Chilecito 02-05-2026 01:15 14,7 46,8 0 0 240 0,6 938,5
5 Monte Patria - Chilecito 02-05-2026 01:00 14,6 48 0 0 240 0,6 938,6
4 Monte Patria - Chilecito 02-05-2026 00:45 14,5 49,4 0 0 240 0,6 938,7
3 Monte Patria - Chilecito 02-05-2026 00:30 14,9 47,8 0 0 240 0,6 938,9
2 Monte Patria - Chilecito 02-05-2026 00:15 14,9 48,7 0 0 240 0,6 938,9
1 Monte Patria - Chilecito 02-05-2026 00:00 15,2 49,1 0 0 240 0,6 938,9